Date String (YYYY-MM-DD hh:mm:ss) UTC,Instrument flags,Ambient pressure (hPa),Sample flow (lpm),Bypass flow (lpm),Sample temperature (°C),Ambient temperature (°C),ASC tube jacket temperature (°C),LED temperature (°C),Box temperature (°C),Sample RH (%),Span deviation,Mass concentration (μg/m³),Mass concentration (μg/m³),Mass concentration (μg/m³)
DateTimeUTC,F1_M11,P_M11,Q1_M11,Q2_M11,T1_M11,T2_M11,T3_M11,T4_M11,T5_M11,U1_M11,ZSPAN_M11,X0_M11,X2_M11,X1_M11
2022-02-18 12:00:00,,0826.1,5.00,0.00,22.4,23.0,00.0,31.2,24.3,07.2,0000.0,0002.93,0002.06,0001.73
2022-02-18 12:01:00,,0826.1,5.01,0.00,22.4,22.7,00.0,31.2,24.2,07.4,0000.0,0003.05,0002.12,0001.76
2022-02-18 12:02:00,,0826.1,5.01,0.00,22.4,22.4,00.0,31.2,24.2,07.4,0000.0,0002.96,0002.17,0001.83
2022-02-18 12:03:00,,0826.1,4.99,0.00,22.3,22.2,00.0,31.2,24.1,07.4,0000.0,0002.96,0002.23,0001.90
2022-02-18 12:04:00,,0826.2,4.99,0.00,22.3,21.9,00.0,31.2,24.0,07.4,0000.0,0003.05,0002.30,0001.97
2022-02-18 12:05:00,,0826.1,5.00,0.00,22.3,21.6,00.0,31.2,24.0,07.5,0000.0,0003.11,0002.38,0002.05
2022-02-18 12:06:00,,0826.1,5.02,0.00,22.2,21.5,00.0,31.2,23.9,07.4,0000.0,0003.19,0002.43,0002.09
2022-02-18 12:07:00,,0826.2,5.00,0.00,22.2,21.5,00.0,31.2,23.9,07.2,0000.0,0003.06,0002.37,0002.07
2022-02-18 12:08:00,,0826.1,4.99,0.00,22.2,21.4,00.0,31.2,23.9,07.3,0000.0,0003.13,0002.32,0001.99
2022-02-18 12:09:00,,0826.1,5.01,0.00,22.2,21.4,00.0,31.2,23.9,07.4,0000.0,0003.32,0002.33,0001.94
2022-02-18 12:10:00,,0826.1,4.99,0.00,22.2,21.3,00.0,31.2,23.9,07.5,0000.0,0004.11,0002.35,0001.96
2022-02-18 12:11:00,,0826.0,5.00,0.00,22.1,21.3,00.0,31.2,23.8,07.4,0000.0,0004.44,0002.47,0002.04
2022-02-18 12:12:00,,0826.0,5.01,0.00,22.1,21.3,00.0,31.2,23.8,07.4,0000.0,0004.36,0002.43,0002.04
2022-02-18 12:13:00,,0825.9,5.01,0.00,22.1,21.3,00.0,31.1,23.8,07.4,0000.0,0004.44,0002.38,0001.98
2022-02-18 12:14:00,,0825.9,5.00,0.00,22.1,21.3,00.0,31.1,23.8,07.4,0000.0,0004.42,0002.31,0001.90
2022-02-18 12:15:00,,0825.9,4.99,0.00,22.1,21.3,00.0,31.1,23.8,07.3,0000.0,0004.18,0002.20,0001.82
2022-02-18 12:16:00,,0825.9,5.00,0.00,22.0,21.3,00.0,31.1,23.8,07.3,0000.0,0004.13,0002.08,0001.72
2022-02-18 12:17:00,,0825.9,5.01,0.00,22.0,21.3,00.0,31.1,23.7,07.2,0000.0,0004.08,0002.01,0001.64
2022-02-18 12:18:00,,0825.8,4.99,0.00,22.0,21.3,00.0,31.1,23.7,07.3,0000.0,0004.15,0002.06,0001.66
2022-02-18 12:19:00,,0825.9,5.00,0.00,22.0,21.6,00.0,31.1,23.8,07.3,0000.0,0003.98,0002.02,0001.66
2022-02-18 12:20:00,,0825.8,5.00,0.00,22.2,22.5,00.0,31.1,24.0,07.1,0000.0,0003.75,0001.92,0001.60
2022-02-18 12:21:00,,0825.9,5.00,0.00,22.3,23.1,00.0,31.1,24.2,06.9,0000.0,0003.34,0001.81,0001.52
2022-02-18 12:22:00,,0825.9,4.99,0.00,22.4,23.0,00.0,31.2,24.3,06.9,0000.0,0003.57,0001.68,0001.40
2022-02-18 12:23:00,,0825.9,5.00,0.00,22.4,22.8,00.0,31.2,24.3,07.0,0000.0,0003.50,0001.60,0001.31
2022-02-18 12:24:00,,0825.9,5.00,0.00,22.4,22.5,00.0,31.2,24.2,07.0,0000.0,0003.31,0001.52,0001.23
2022-02-18 12:25:00,,0826.0,5.00,0.00,22.4,22.3,00.0,31.2,24.2,07.0,0000.0,0003.19,0001.46,0001.18
2022-02-18 12:26:00,,0826.0,5.00,0.00,22.4,22.2,00.0,31.2,24.1,07.0,0000.0,0003.13,0001.41,0001.13
2022-02-18 12:27:00,,0826.0,5.00,0.00,22.3,22.0,00.0,31.2,24.1,07.0,0000.0,0003.01,0001.37,0001.10
2022-02-18 12:28:00,,0826.0,5.00,0.00,22.3,21.9,00.0,31.2,24.1,07.0,0000.0,0002.91,0001.33,0001.09
2022-02-18 12:29:00,,0826.0,5.02,0.00,22.3,21.8,00.0,31.2,24.0,07.2,0000.0,0002.76,0001.26,0001.07
2022-02-18 12:30:00,,0826.0,4.99,0.00,22.2,21.7,00.0,31.2,23.9,07.3,0000.0,0002.71,0001.24,0001.06
2022-02-18 12:31:00,,0826.0,5.01,0.00,22.2,21.6,00.0,31.2,23.8,07.3,0000.0,0002.64,0001.24,0001.09
2022-02-18 12:32:00,,0826.0,5.00,0.00,22.2,21.5,00.0,31.2,23.8,07.4,0000.0,0002.46,0001.35,0001.17
2022-02-18 12:33:00,,0826.0,4.98,0.00,22.1,21.4,00.0,31.2,23.8,07.4,0000.0,0001.98,0001.46,0001.27
2022-02-18 12:34:00,,0826.0,5.02,0.00,22.1,21.3,00.0,31.2,23.8,07.4,0000.0,0002.04,0001.53,0001.35
2022-02-18 12:35:00,,0826.1,5.00,0.00,22.1,21.2,00.0,31.2,23.8,07.3,0000.0,0002.12,0001.58,0001.42
2022-02-18 12:36:00,,0826.0,4.99,0.00,22.1,21.2,00.0,31.1,23.8,07.2,0000.0,0002.15,0001.58,0001.43
2022-02-18 12:37:00,,0826.0,5.02,0.00,22.0,21.2,00.0,31.1,23.7,07.4,0000.0,0002.28,0001.65,0001.48
2022-02-18 12:38:00,,0826.0,4.98,0.00,22.0,21.1,00.0,31.1,23.6,07.4,0000.0,0002.37,0001.71,0001.53
2022-02-18 12:39:00,,0826.0,5.01,0.00,22.0,21.3,00.0,31.1,23.6,07.4,0000.0,0002.48,0001.76,0001.57
2022-02-18 12:40:00,,0826.0,5.00,0.00,22.1,22.1,00.0,31.1,23.8,07.4,0000.0,0002.60,0001.80,0001.60
2022-02-18 12:41:00,,0826.0,4.99,0.00,22.2,22.8,00.0,31.2,24.1,07.4,0000.0,0002.75,0001.85,0001.61
2022-02-18 12:42:00,,0826.0,5.00,0.00,22.3,22.8,00.0,31.2,24.1,07.4,0000.0,0002.94,0001.93,0001.61
2022-02-18 12:43:00,,0826.0,5.00,0.00,22.2,22.4,00.0,31.2,24.0,07.5,0000.0,0002.80,0001.88,0001.58
2022-02-18 12:44:00,,0826.0,5.00,0.00,22.1,22.1,00.0,31.2,23.8,07.6,0000.0,0002.69,0001.84,0001.55
2022-02-18 12:45:00,,0826.0,4.99,0.00,22.1,21.8,00.0,31.1,23.6,07.6,0000.0,0002.76,0001.86,0001.54
2022-02-18 12:46:00,,0825.9,4.99,0.00,22.0,21.5,00.0,31.1,23.5,07.6,0000.0,0002.76,0001.89,0001.54
2022-02-18 12:47:00,,0825.9,5.01,0.00,21.9,21.3,00.0,31.1,23.4,07.5,0000.0,0002.81,0001.93,0001.58
2022-02-18 12:48:00,,0825.9,5.01,0.00,21.8,21.1,00.0,31.0,23.3,07.8,0000.0,0002.76,0001.92,0001.58
2022-02-18 12:49:00,,0825.9,4.99,0.00,21.7,21.0,00.0,31.0,23.2,07.6,0000.0,0002.80,0001.93,0001.56
2022-02-18 12:50:00,,0825.9,4.99,0.00,21.7,20.8,00.0,31.0,23.1,07.7,0000.0,0002.81,0001.95,0001.55
2022-02-18 12:51:00,,0825.8,5.00,0.00,21.6,20.7,00.0,30.9,23.0,07.6,0000.0,0002.88,0001.93,0001.52
2022-02-18 12:52:00,,0825.8,5.01,0.00,21.6,21.1,00.0,30.9,23.1,07.6,0000.0,0002.82,0001.85,0001.47
2022-02-18 12:53:00,,0825.8,4.98,0.00,21.7,22.0,00.0,30.9,23.5,07.8,0000.0,0002.64,0001.75,0001.44
2022-02-18 12:54:00,,0825.8,5.00,0.00,21.9,22.8,00.0,31.0,23.8,07.7,0000.0,0002.97,0001.68,0001.39
2022-02-18 12:55:00,,0825.7,5.00,0.00,22.0,23.0,00.0,31.0,23.9,07.7,0000.0,0003.24,0001.65,0001.35
2022-02-18 12:56:00,,0825.8,5.01,0.00,22.0,22.5,00.0,31.0,23.8,07.9,0000.0,0003.28,0001.63,0001.31
2022-02-18 12:57:00,,0825.7,4.99,0.00,21.9,22.1,00.0,31.0,23.5,07.7,0000.0,0003.24,0001.58,0001.25
2022-02-18 12:58:00,,0825.8,4.99,0.00,21.8,21.7,00.0,30.9,23.4,07.7,0000.0,0003.19,0001.54,0001.20
2022-02-18 12:59:00,,0825.8,5.00,0.00,21.8,21.4,00.0,30.9,23.2,07.6,0000.0,0003.17,0001.50,0001.15
